Regional Weather Roundup
Issued by NWS Newport/Morehead, NC

Current Version | Previous Version | Text Only | Print | Product List | Glossary Off
Versions: 1 2 3 4 5 6 7 8 9 10 11 12 13 14 15 16 17 18 19 20 21 22 23 24 25 26 27 28 29 30 31 32 33 34 35 36 37 38 39 40 41 42 43 44 45 46 47 48 49 50
045 ASUS42 KMHX 260525 RWRMHX WEATHER ROUNDUP FOR EASTERN NORTH CAROLINA NATIONAL WEATHER SERVICE NEWPORT/MOREHEAD CITY NC 100 AM EDT MON JUN 26 2017 NOTE: "FAIR" INDICATES FEW OR NO CLOUDS BELOW 12,000 FEET WITH NO SIGNIFICANT WEATHER AND/OR OBSTRUCTIONS TO VISIBILITY NCZ015>017-031-032-045>047-102-103-260600- NORTH COAST CITY SKY/WX TMP DP RH WIND PRES REMARKS EDENTON CLOUDY 75 63 67 CALM 30.06S ELIZABETH CITY CLOUDY 73 65 75 NW7 30.05R KITTY HAWK CLOUDY 78 64 62 NW5 30.03R MANTEO PTCLDY 78 65 62 NW6 30.05R $$ NCZ045>047-081-094-103-104-260600- CENTRAL COAST CITY SKY/WX TMP DP RH WIND PRES REMARKS FRISCO CLOUDY 78 73 84 SW5 30.04R $$ NCZ095-097-098-100-101-260600- SOUTHERN COAST CITY SKY/WX TMP DP RH WIND PRES REMARKS BEAUFORT CLOUDY 79 78 97 W6 30.05F CEDAR ISLAND NOT AVBL JACKSONVILLE CLOUDY 74 73 97 NW5 30.06S PINEY ISLAND CLOUDY N/A N/A N/A W6 30.05S WILMINGTON CLOUDY 73 71 93 N3 30.06F $$ NCZ011>013-027>030-043-044-078>080-089-090>093-098-260600- COASTAL PLAIN CITY SKY/WX TMP DP RH WIND PRES REMARKS AHOSKIE N/A 67 65 93 CALM 30.08R CLINTON CLOUDY 73 72 98 CALM 30.09S ELIZABETHTOWN NOT AVBL GOLDSBORO CLOUDY 75 67 76 CALM 30.06S GREENVILLE CLEAR 72 64 78 CALM 30.08F HAVELOCK NOT AVBL KENANSVILLE MOCLDY 70 70 100 CALM 30.09S KINSTON MOCLDY 69 67 93 S3 30.09S NEW BERN CLOUDY 74 73 97 CALM 30.08R RICHLANDS NOT AVBL ROCKY MOUNT CLOUDY 67 66 97 CALM 30.08S WASHINGTON CLOUDY N/A N/A N/A CALM 30.07S WHITEVILLE CLOUDY 73 72 96 CALM 30.08S $$ AMZ130-135-150-152-154-156-158-170-250-252-270-ANZ085-086-088-633-658-670-260600- MARINE OBSERVATIONS STATION/POSITION TIME TEMP WIND PRES WAVE SWELL AIR SEA DIR/SP/G HT/PER HT/PER (UTC) (F) (DEG/KT/KT) (MB) (FT/S) (FT/S) CHESAPEAKE LIGHT NOT AVBL 64 E VA BEACH 0450 74 74 250/ 2/ 2 1017.0 2/ 8 2/ 8 DUCK 0500 78 66 320/ 13/ 16 1016.6 2 E DUCK NOT AVBL OREGON INLET 0500 80 79 300/ 7/ 10 1017.1 13E OREGON INLT 0448 73 N/A 2/ 6 2/ 6 HATTERAS CG 0500 77 79 240/ 6/ 8 1017.3 DIAMOND BUOY 0450 78 80 240/ 14/ 16 1017.1 3/ 8 2/ 8 CAPE LOOKOUT 0500 78 260/ 10/ 11 1017.2 BEAUFORT LAB 0500 78 78 250/ 3/ 5 1017.1 30 SE NEW RVR IN 0508 79 80 230/ 6/ 8 1018.0 30 SE NEW RVR IN 0513 80 N/A 3/ 6 27 SE WRIGHTSVLE 0508 78 80 280/ 4/ 6 1017.5 5 SE WRIGHTSVLE 0508 76 79 310/ 4/ 8 1018.0 225 S CAPE HAT 0450 80 80 190/ 12/ 14 1019.4 4/ 6 3/ 6 41 SE CHARLESTON 0510 80 81 220/ 8/ 10 1017.4 $$

USA.gov is the U.S. government's official web portal to all federal, state and local government web resources and services.